ANAA226 RPLL-RPVI

Flight info

Callsign ANAA226
Flight time 1h 6m
Altitude 33000
Route VERDE2R VERDE A461 SAJ W3 BEDER BEDER1N
Aircraft B739/M-SDE2E3FGHIRWXY/LB1

Departure

Time 2026-04-14 10:07
Airport Ninoy Aquino International Airport (RPLL)

Arrival

Time 2026-04-14 11:14
Airport Iloilo International Airport (RPVI)
Time Latitude Longitude Altitude Speed Heading
2026-04-14 09:31 14.50471 121.00657 68 ft 0 kts
2026-04-14 09:55 14.50454 121.00657 62 ft 4 kts 355°
2026-04-14 09:56 14.50427 121.00662 63 ft 4 kts 338°
2026-04-14 09:56 14.50407 121.00676 66 ft 4 kts 301°
2026-04-14 09:56 14.50403 121.00694 61 ft 2 kts 241°
2026-04-14 09:56 14.50406 121.00699 62 ft 0 kts 241°
2026-04-14 10:01 14.50397 121.00683 59 ft 6 kts 239°
2026-04-14 10:01 14.50368 121.00632 59 ft 10 kts 239°
2026-04-14 10:01 14.50324 121.00555 68 ft 14 kts 239°
2026-04-14 10:02 14.50269 121.00451 61 ft 18 kts 242°
2026-04-14 10:02 14.50208 121.00353 59 ft 13 kts 220°
2026-04-14 10:02 14.50122 121.00324 66 ft 14 kts 219°
2026-04-14 10:02 14.50065 121.00237 63 ft 16 kts 239°
2026-04-14 10:03 14.50009 121.00135 63 ft 17 kts 241°
2026-04-14 10:03 14.49951 121.00028 64 ft 16 kts 240°
2026-04-14 10:03 14.49882 120.99971 60 ft 13 kts 173°
2026-04-14 10:03 14.49877 120.99972 62 ft 0 kts 167°
2026-04-14 10:06 14.49839 120.99987 65 ft 10 kts 155°
2026-04-14 10:06 14.49823 121.00070 64 ft 16 kts 60°
2026-04-14 10:06 14.49841 121.00100 65 ft 0 kts 55°
2026-04-14 10:06 14.49903 121.00208 63 ft 56 kts 60°
2026-04-14 10:07 14.50232 121.00809 65 ft 133 kts 59°
2026-04-14 10:07 14.50786 121.01826 171 ft 184 kts 63°
2026-04-14 10:07 14.51430 121.02982 920 ft 195 kts 62°
2026-04-14 10:07 14.52161 121.04228 1585 ft 206 kts 61°
2026-04-14 10:08 14.52902 121.05493 2089 ft 210 kts 62°
2026-04-14 10:08 14.53608 121.06792 2283 ft 204 kts 62°
2026-04-14 10:08 14.54345 121.08071 2503 ft 216 kts 62°
2026-04-14 10:08 14.55128 121.09490 2783 ft 234 kts 61°
2026-04-14 10:09 14.55951 121.10939 2875 ft 237 kts 57°
2026-04-14 10:09 14.57003 121.12297 2581 ft 245 kts 57°
2026-04-14 10:09 14.57483 121.13946 2256 ft 239 kts 99°
2026-04-14 10:09 14.56790 121.15326 2627 ft 208 kts 140°
2026-04-14 10:10 14.55512 121.15832 3008 ft 203 kts 165°
2026-04-14 10:10 14.54205 121.16543 3190 ft 225 kts 131°
2026-04-14 10:10 14.53077 121.17763 3651 ft 243 kts 133°
2026-04-14 10:10 14.51860 121.19013 4332 ft 251 kts 134°
2026-04-14 10:11 14.50606 121.20296 5061 ft 256 kts 134°
2026-04-14 10:11 14.49345 121.21595 5859 ft 258 kts 134°
2026-04-14 10:11 14.48060 121.22922 6519 ft 263 kts 135°
2026-04-14 10:11 14.46554 121.23958 6788 ft 262 kts 162°
2026-04-14 10:12 14.44741 121.24100 6869 ft 268 kts 192°
2026-04-14 10:12 14.43069 121.23276 6897 ft 269 kts 221°
2026-04-14 10:12 14.41757 121.21912 6898 ft 268 kts 229°
2026-04-14 10:12 14.40523 121.20478 6906 ft 266 kts 229°
2026-04-14 10:13 14.39321 121.19065 7121 ft 260 kts 229°
2026-04-14 10:13 14.38115 121.17655 7358 ft 264 kts 229°
2026-04-14 10:13 14.36883 121.16226 7592 ft 268 kts 229°
2026-04-14 10:13 14.35632 121.14781 7826 ft 271 kts 228°
2026-04-14 10:14 14.34374 121.13335 8161 ft 268 kts 228°
2026-04-14 10:14 14.33134 121.11912 8598 ft 269 kts 228°
2026-04-14 10:14 14.31870 121.10466 9049 ft 272 kts 228°
2026-04-14 10:14 14.30594 121.09007 9503 ft 276 kts 227°
2026-04-14 10:15 14.29303 121.07532 9857 ft 280 kts 227°
2026-04-14 10:15 14.27961 121.06044 9868 ft 286 kts 222°
2026-04-14 10:15 14.26378 121.04767 9896 ft 293 kts 214°
2026-04-14 10:15 14.24689 121.03598 9883 ft 291 kts 212°
2026-04-14 10:16 14.23010 121.02466 9870 ft 286 kts 212°
2026-04-14 10:16 14.21364 121.01346 9870 ft 282 kts 213°
2026-04-14 10:16 14.19742 121.00229 9870 ft 279 kts 213°
2026-04-14 10:16 14.18136 120.99112 9877 ft 278 kts 213°
2026-04-14 10:17 14.16534 120.97992 9886 ft 278 kts 213°
2026-04-14 10:17 14.14934 120.96868 9879 ft 277 kts 213°
2026-04-14 10:17 14.13342 120.95748 9879 ft 278 kts 213°
2026-04-14 10:17 14.11711 120.94600 9907 ft 294 kts 213°
2026-04-14 10:18 14.08214 120.92137 9935 ft 304 kts 214°
2026-04-14 10:18 14.06490 120.90922 10153 ft 299 kts 213°
2026-04-14 10:18 14.04646 120.89913 10347 ft 303 kts 193°
2026-04-14 10:19 14.02552 120.89773 10593 ft 305 kts 169°
2026-04-14 10:19 14.00474 120.90219 10828 ft 305 kts 165°
2026-04-14 10:19 13.98415 120.90759 11047 ft 305 kts 163°
2026-04-14 10:19 13.96358 120.91317 11263 ft 306 kts 163°
2026-04-14 10:20 13.94302 120.91873 11476 ft 306 kts 163°
2026-04-14 10:20 13.92238 120.92423 11709 ft 306 kts 163°
2026-04-14 10:20 13.90218 120.92956 12129 ft 304 kts 164°
2026-04-14 10:20 13.88140 120.93500 12585 ft 312 kts 164°
2026-04-14 10:21 13.86013 120.94053 13036 ft 318 kts 164°
2026-04-14 10:21 13.83861 120.94609 13258 ft 317 kts 164°
2026-04-14 10:21 13.81732 120.95157 13267 ft 315 kts 164°
2026-04-14 10:21 13.79595 120.95707 13295 ft 318 kts 164°
2026-04-14 10:22 13.77437 120.96261 13293 ft 320 kts 164°
2026-04-14 10:22 13.75273 120.96817 13294 ft 325 kts 164°
2026-04-14 10:22 13.73015 120.97399 13305 ft 340 kts 164°
2026-04-14 10:22 13.70717 120.97988 13292 ft 342 kts 164°
2026-04-14 10:23 13.68407 120.98582 13294 ft 342 kts 165°
2026-04-14 10:23 13.66092 120.99175 13277 ft 343 kts 165°
2026-04-14 10:23 13.63775 120.99770 13275 ft 343 kts 165°
2026-04-14 10:23 13.61460 121.00363 13290 ft 343 kts 165°
2026-04-14 10:24 13.59148 121.00956 13290 ft 342 kts 165°
2026-04-14 10:24 13.56840 121.01548 13275 ft 342 kts 165°
2026-04-14 10:24 13.54527 121.02141 13301 ft 342 kts 165°
2026-04-14 10:24 13.52220 121.02732 13298 ft 342 kts 165°
2026-04-14 10:25 13.49897 121.03259 13283 ft 342 kts 172°
2026-04-14 10:25 13.47522 121.03373 13314 ft 342 kts 179°
2026-04-14 10:25 13.45141 121.03359 13290 ft 342 kts 179°
2026-04-14 10:25 13.42763 121.03330 13308 ft 342 kts 179°
2026-04-14 10:26 13.40382 121.03313 13307 ft 342 kts 179°
2026-04-14 10:26 13.38000 121.03312 13308 ft 342 kts 179°
2026-04-14 10:26 13.35622 121.03321 13312 ft 342 kts 179°
2026-04-14 10:26 13.33243 121.03336 13320 ft 342 kts 178°
2026-04-14 10:27 13.30862 121.03354 13316 ft 342 kts 178°
2026-04-14 10:27 13.28476 121.03374 13312 ft 343 kts 178°
2026-04-14 10:27 13.26091 121.03393 13321 ft 342 kts 178°
2026-04-14 10:27 13.23710 121.03413 13316 ft 343 kts 178°
2026-04-14 10:28 13.21324 121.03437 13324 ft 342 kts 178°
2026-04-14 10:28 13.18942 121.03462 13301 ft 342 kts 178°
2026-04-14 10:28 13.16565 121.03486 13322 ft 341 kts 178°
2026-04-14 10:28 13.14218 121.03510 13325 ft 341 kts 178°
2026-04-14 10:29 13.11817 121.03535 13339 ft 341 kts 178°
2026-04-14 10:29 13.09445 121.03559 13327 ft 341 kts 178°
2026-04-14 10:29 13.07074 121.03583 13318 ft 341 kts 178°
2026-04-14 10:29 13.04703 121.03607 13326 ft 341 kts 178°
2026-04-14 10:30 13.02365 121.03631 13329 ft 341 kts 178°
2026-04-14 10:30 12.99989 121.03655 13327 ft 341 kts 178°
2026-04-14 10:30 12.97615 121.03679 13325 ft 341 kts 178°
2026-04-14 10:30 12.95240 121.03703 13331 ft 341 kts 178°
2026-04-14 10:31 12.92868 121.03727 13329 ft 341 kts 178°
2026-04-14 10:31 12.90492 121.03751 13326 ft 341 kts 178°
2026-04-14 10:31 12.88116 121.03775 13318 ft 341 kts 178°
2026-04-14 10:31 12.85742 121.03799 13322 ft 341 kts 178°
2026-04-14 10:32 12.83373 121.03823 13314 ft 340 kts 178°
2026-04-14 10:32 12.81002 121.03847 13300 ft 340 kts 178°
2026-04-14 10:32 12.78635 121.03871 13318 ft 340 kts 178°
2026-04-14 10:32 12.76269 121.03894 13315 ft 339 kts 178°
2026-04-14 10:33 12.73910 121.03918 13320 ft 340 kts 178°
2026-04-14 10:33 12.71540 121.03942 13324 ft 341 kts 178°
2026-04-14 10:33 12.69160 121.03967 13309 ft 342 kts 178°
2026-04-14 10:33 12.66779 121.03991 13316 ft 343 kts 178°
2026-04-14 10:34 12.62811 121.04030 13311 ft 343 kts 178°
2026-04-14 10:34 12.60428 121.04054 13304 ft 343 kts 178°
2026-04-14 10:34 12.58044 121.04078 13301 ft 342 kts 178°
2026-04-14 10:35 12.55666 121.04102 13298 ft 342 kts 178°
2026-04-14 10:35 12.53286 121.04126 13293 ft 342 kts 178°
2026-04-14 10:35 12.50911 121.04150 13293 ft 341 kts 178°
2026-04-14 10:35 12.48537 121.04174 13294 ft 341 kts 178°
2026-04-14 10:36 12.46162 121.04198 13286 ft 341 kts 178°
2026-04-14 10:36 12.43790 121.04222 13289 ft 341 kts 178°
2026-04-14 10:36 12.41419 121.04245 13289 ft 341 kts 178°
2026-04-14 10:36 12.39050 121.04270 13284 ft 341 kts 178°
2026-04-14 10:37 12.36717 121.04618 13284 ft 338 kts 160°
2026-04-14 10:37 12.34610 121.05652 13263 ft 336 kts 143°
2026-04-14 10:37 12.32830 121.07181 13292 ft 334 kts 136°
2026-04-14 10:37 12.31127 121.08816 13283 ft 335 kts 135°
2026-04-14 10:38 12.29443 121.10466 13279 ft 336 kts 135°
2026-04-14 10:38 12.27757 121.12120 13289 ft 336 kts 135°
2026-04-14 10:38 12.26086 121.13750 13283 ft 336 kts 135°
2026-04-14 10:38 12.24386 121.15398 13277 ft 337 kts 135°
2026-04-14 10:39 12.22681 121.17044 13284 ft 337 kts 135°
2026-04-14 10:39 12.20974 121.18687 13280 ft 337 kts 135°
2026-04-14 10:39 12.19266 121.20327 13281 ft 337 kts 135°
2026-04-14 10:39 12.17558 121.21965 13283 ft 336 kts 135°
2026-04-14 10:40 12.15847 121.23604 13276 ft 336 kts 135°
2026-04-14 10:40 12.14143 121.25236 13279 ft 336 kts 135°
2026-04-14 10:40 12.12436 121.26870 13280 ft 336 kts 135°
2026-04-14 10:40 12.10752 121.28482 13280 ft 335 kts 135°
2026-04-14 10:41 12.09046 121.30114 13280 ft 335 kts 135°
2026-04-14 10:41 12.07342 121.31744 13280 ft 335 kts 135°
2026-04-14 10:41 12.05636 121.33375 13282 ft 335 kts 135°
2026-04-14 10:41 12.03932 121.35005 13276 ft 335 kts 135°
2026-04-14 10:42 12.02233 121.36629 13280 ft 335 kts 135°
2026-04-14 10:42 12.00531 121.38256 13285 ft 334 kts 135°
2026-04-14 10:42 11.98833 121.39878 13277 ft 334 kts 135°
2026-04-14 10:42 11.97136 121.41500 13281 ft 334 kts 135°
2026-04-14 10:43 11.95439 121.43121 13284 ft 334 kts 135°
2026-04-14 10:43 11.93739 121.44745 13277 ft 334 kts 135°
2026-04-14 10:43 11.92042 121.46365 13281 ft 334 kts 135°
2026-04-14 10:43 11.90346 121.47985 13279 ft 333 kts 135°
2026-04-14 10:44 11.88677 121.49577 13256 ft 324 kts 135°
2026-04-14 10:44 11.87052 121.51127 13270 ft 317 kts 135°
2026-04-14 10:44 11.85443 121.52663 13280 ft 317 kts 135°
2026-04-14 10:44 11.83827 121.54206 13289 ft 319 kts 135°
2026-04-14 10:45 11.82204 121.55755 13284 ft 320 kts 135°
2026-04-14 10:45 11.80574 121.57311 13280 ft 321 kts 135°
2026-04-14 10:45 11.78941 121.58868 13281 ft 322 kts 135°
2026-04-14 10:45 11.77322 121.60412 13279 ft 323 kts 135°
2026-04-14 10:46 11.75679 121.61979 13281 ft 323 kts 135°
2026-04-14 10:46 11.74032 121.63549 13279 ft 324 kts 135°
2026-04-14 10:46 11.72387 121.65117 13274 ft 324 kts 135°
2026-04-14 10:46 11.70741 121.66686 13275 ft 323 kts 135°
2026-04-14 10:47 11.69097 121.68252 13277 ft 323 kts 135°
2026-04-14 10:47 11.67459 121.69812 13276 ft 322 kts 135°
2026-04-14 10:47 11.65843 121.71350 13251 ft 311 kts 135°
2026-04-14 10:47 11.64293 121.72820 13244 ft 297 kts 135°
2026-04-14 10:48 11.62808 121.74226 13238 ft 286 kts 135°
2026-04-14 10:48 11.61363 121.75596 13267 ft 283 kts 135°
2026-04-14 10:48 11.59919 121.76964 13283 ft 284 kts 135°
2026-04-14 10:48 11.58472 121.78337 13284 ft 285 kts 135°
2026-04-14 10:49 11.57016 121.79718 13289 ft 286 kts 135°
2026-04-14 10:49 11.55560 121.81099 13282 ft 286 kts 135°
2026-04-14 10:49 11.54099 121.82484 13281 ft 287 kts 135°
2026-04-14 10:49 11.52637 121.83869 13276 ft 287 kts 135°
2026-04-14 10:50 11.51178 121.85251 13272 ft 286 kts 135°
2026-04-14 10:50 11.49721 121.86630 13284 ft 285 kts 135°
2026-04-14 10:50 11.48267 121.88007 13284 ft 285 kts 135°
2026-04-14 10:50 11.46815 121.89382 13267 ft 285 kts 135°
2026-04-14 10:51 11.45364 121.90757 13281 ft 284 kts 135°
2026-04-14 10:51 11.43917 121.92127 13289 ft 284 kts 135°
2026-04-14 10:51 11.42473 121.93495 13286 ft 284 kts 135°
2026-04-14 10:51 11.41029 121.94863 13286 ft 283 kts 135°
2026-04-14 10:52 11.39584 121.96232 13271 ft 283 kts 135°
2026-04-14 10:52 11.38141 121.97598 13290 ft 283 kts 135°
2026-04-14 10:52 11.36717 121.98946 13286 ft 283 kts 135°
2026-04-14 10:52 11.35255 122.00330 13292 ft 283 kts 135°
2026-04-14 10:53 11.33829 122.01681 13289 ft 284 kts 135°
2026-04-14 10:53 11.32384 122.03049 13292 ft 284 kts 135°
2026-04-14 10:53 11.30935 122.04420 13281 ft 284 kts 135°
2026-04-14 10:53 11.29487 122.05790 13300 ft 284 kts 135°
2026-04-14 10:54 11.28054 122.07145 13306 ft 278 kts 135°
2026-04-14 10:54 11.26671 122.08452 13299 ft 262 kts 135°
2026-04-14 10:54 11.25382 122.09669 13288 ft 243 kts 135°
2026-04-14 10:54 11.24169 122.10815 13315 ft 239 kts 135°
2026-04-14 10:55 11.22921 122.11999 13285 ft 248 kts 135°
2026-04-14 10:55 11.21653 122.13198 13310 ft 249 kts 135°
2026-04-14 10:55 11.20381 122.14402 13297 ft 249 kts 135°
2026-04-14 10:55 11.19115 122.15599 13295 ft 248 kts 135°
2026-04-14 10:56 11.17854 122.16791 13286 ft 247 kts 135°
2026-04-14 10:56 11.16597 122.17979 13298 ft 246 kts 135°
2026-04-14 10:56 11.15343 122.19165 13300 ft 246 kts 135°
2026-04-14 10:56 11.14091 122.20349 13308 ft 246 kts 135°
2026-04-14 10:57 11.12836 122.21536 13309 ft 247 kts 135°
2026-04-14 10:57 11.11571 122.22732 13289 ft 248 kts 135°
2026-04-14 10:57 11.10313 122.23919 13288 ft 243 kts 135°
2026-04-14 10:57 11.09121 122.25042 13272 ft 223 kts 135°
2026-04-14 10:58 11.08042 122.26058 13269 ft 201 kts 135°
2026-04-14 10:58 11.07028 122.27015 13300 ft 197 kts 134°
2026-04-14 10:58 11.06023 122.27966 13303 ft 198 kts 134°
2026-04-14 10:58 11.05009 122.28921 13248 ft 201 kts 135°
2026-04-14 10:59 11.03959 122.29911 12751 ft 213 kts 135°
2026-04-14 10:59 11.02842 122.30963 12021 ft 222 kts 135°
2026-04-14 10:59 11.01694 122.32043 11312 ft 228 kts 135°
2026-04-14 10:59 11.00516 122.33151 10622 ft 233 kts 135°
2026-04-14 11:00 10.99317 122.34278 9916 ft 237 kts 135°
2026-04-14 11:00 10.98075 122.35446 8919 ft 249 kts 135°
2026-04-14 11:00 10.96787 122.36657 7947 ft 255 kts 135°
2026-04-14 11:00 10.95477 122.37887 7002 ft 257 kts 135°
2026-04-14 11:01 10.94032 122.38959 6022 ft 261 kts 155°
2026-04-14 11:01 10.92244 122.39239 5074 ft 263 kts 182°
2026-04-14 11:01 10.90450 122.38869 4124 ft 263 kts 193°
2026-04-14 11:01 10.88785 122.38401 4101 ft 228 kts 194°
2026-04-14 11:02 10.87361 122.37994 4123 ft 197 kts 194°
2026-04-14 11:02 10.86137 122.37648 4135 ft 171 kts 194°
2026-04-14 11:02 10.84933 122.37314 4195 ft 183 kts 193°
2026-04-14 11:02 10.83705 122.36975 4151 ft 184 kts 194°
2026-04-14 11:03 10.82432 122.36627 3968 ft 195 kts 194°
2026-04-14 11:03 10.81093 122.36260 3784 ft 203 kts 194°
2026-04-14 11:03 10.79725 122.35886 3623 ft 205 kts 194°
2026-04-14 11:03 10.78333 122.35507 3426 ft 209 kts 194°
2026-04-14 11:04 10.76926 122.35124 3218 ft 210 kts 194°
2026-04-14 11:04 10.75512 122.34740 3016 ft 211 kts 193°
2026-04-14 11:04 10.74086 122.34353 2808 ft 212 kts 193°
2026-04-14 11:04 10.72667 122.33969 2711 ft 206 kts 194°
2026-04-14 11:05 10.71314 122.33603 2720 ft 196 kts 193°
2026-04-14 11:05 10.70024 122.33254 2749 ft 188 kts 193°
2026-04-14 11:05 10.68763 122.32912 2702 ft 188 kts 193°
2026-04-14 11:05 10.67511 122.32630 2716 ft 180 kts 179°
2026-04-14 11:06 10.66406 122.33016 2750 ft 164 kts 135°
2026-04-14 11:06 10.65791 122.33927 2760 ft 153 kts 105°
2026-04-14 11:06 10.65433 122.34939 2761 ft 152 kts 106°
2026-04-14 11:06 10.65059 122.35945 2756 ft 152 kts 106°
2026-04-14 11:07 10.64688 122.36949 2758 ft 151 kts 106°
2026-04-14 11:07 10.64323 122.37950 2763 ft 151 kts 105°
2026-04-14 11:07 10.63961 122.38949 2756 ft 151 kts 105°
2026-04-14 11:07 10.63600 122.39947 2756 ft 150 kts 105°
2026-04-14 11:08 10.63386 122.40964 2740 ft 144 kts 77°
2026-04-14 11:08 10.63947 122.41690 2767 ft 132 kts 24°
2026-04-14 11:08 10.64780 122.42066 2749 ft 133 kts 33°
2026-04-14 11:08 10.65564 122.42539 2768 ft 130 kts 26°
2026-04-14 11:09 10.66387 122.42958 2774 ft 137 kts 26°
2026-04-14 11:09 10.67303 122.43361 2778 ft 148 kts 22°
2026-04-14 11:09 10.68212 122.43726 2742 ft 132 kts 21°
2026-04-14 11:10 10.69940 122.44428 2340 ft 138 kts 23°
2026-04-14 11:10 10.70843 122.44786 2283 ft 140 kts 21°
2026-04-14 11:10 10.71765 122.45129 2234 ft 143 kts 19°
2026-04-14 11:10 10.72707 122.45436 2221 ft 138 kts 18°
2026-04-14 11:11 10.73597 122.45748 2084 ft 133 kts 21°
2026-04-14 11:11 10.74435 122.46088 1937 ft 129 kts 22°
2026-04-14 11:11 10.75278 122.46436 1793 ft 133 kts 20°
2026-04-14 11:11 10.76163 122.46734 1783 ft 133 kts 18°
2026-04-14 11:12 10.77039 122.47019 1811 ft 130 kts 17°
2026-04-14 11:12 10.77895 122.47309 1801 ft 130 kts 20°
2026-04-14 11:12 10.78760 122.47647 1697 ft 139 kts 21°
2026-04-14 11:12 10.79704 122.47989 1570 ft 149 kts 18°
2026-04-14 11:13 10.80704 122.48375 1220 ft 158 kts 18°
2026-04-14 11:13 10.81766 122.48765 700 ft 168 kts 15°
2026-04-14 11:13 10.82852 122.49171 264 ft 160 kts 14°
2026-04-14 11:13 10.83761 122.49496 154 ft 81 kts 18°
2026-04-14 11:14 10.83979 122.49574 155 ft 23 kts 20°
2026-04-14 11:14 10.84093 122.49616 155 ft 2 kts 20°
2026-04-14 11:14 10.84123 122.49627 156 ft 0 kts 20°
2026-04-14 11:16 10.84124 122.49627 156 ft 0 kts 20°
2026-04-14 11:16 10.83051 122.49632 150 ft 0 kts 110°